Regional Weather Roundup
Issued by NWS Bismarck, ND

Home | Current Version | Previous Version | Text Only | Print | Product List | Glossary On
Versions: 1 2 3 4 5 6 7 8 9 10 11 12 13 14 15 16 17 18 19 20 21 22 23 24 25 26 27 28 29 30 31 32 33 34 35 36 37 38 39 40 41 42 43 44 45 46 47 48 49 50
000
ASUS43 KBIS 250402
RWRBIS

NWR BROADCAST TEXT
NATIONAL WEATHER SERVICE BISMARCK ND
1100 PM CDT MON JUL 24 2017

NOTE: "FAIR" INDICATES FEW OR NO CLOUDS BELOW 12,000 FEET WITH NO
SIGNIFICANT WEATHER AND/OR OBSTRUCTIONS TO VISIBILITY.


CITY           SKY/WX    TMP DP  RH WIND       PRES   REMARKS
WILLISTON      MOCLDY    75  47  36 N6        29.85R
MINOT          TSTM      72  60  66 NW7       29.82R
MINOT AFB      CLOUDY    74  54  49 NW8       29.80R
BISMARCK       PTCLDY    75  67  76 S12       29.82S
DICKINSON      CLOUDY    78  58  49 N12       29.84R
GARRISON         N/A     78  67  68 S8        29.82R
HETTINGER ARPT CLEAR     76  65  68 SE9       29.85R
JAMESTOWN      CLOUDY    70  64  81 SE14      29.84F
HAZEN          FAIR      79  66  65 SW10      29.82R
LINTON         FAIR     N/A N/A N/A SE16G23   29.84F
MANDAN         FAIR      73  66  78 S14       29.83R
STANLEY        FAIR      70  52  52 N7        29.88R
TIOGA          FAIR      68  48  49 N7        29.88R
WATFORD CITY   FAIR      75  50  41 NE7       29.85R
$$

CITY           SKY/WX    TMP DP  RH WIND       PRES   REMARKS
GRAND FORKS    CLOUDY    70  65  84 SE13      29.85F
GRAND FORKS AF CLOUDY    69  63  82 S14       29.85F
DEVILS LAKE    PTCLDY    72  65  78 SE13      29.83R
FARGO          CLEAR     72  63  73 SE14G23   29.89S
CAVALIER       FAIR      70  64  83 S10       29.84R
GRAFTON        FAIR      70  64  83 SE16      29.86S
GWINNER        CLEAR     66  64  94 CALM      29.89F
LANGDON        FAIR      70  70 100 S13G20    29.85S
ROLLA            N/A     70  64  83 S9G16     29.82F
$$

CITY           SKY/WX    TMP DP  RH WIND       PRES   REMARKS
ABERDEEN       PTCLDY    72  66  81 SE12      29.85F
MOBRIDGE       CLOUDY    76  67  73 E15       29.80S
BUFFALO          N/A     81  57  43 N12       29.82R
RAPID CITY     CLEAR     80  51  36 NE12      29.85R
GLASGOW        CLOUDY    71  42  35 N9        29.87R
SIDNEY         MOCLDY    76  48  37 N7        29.85R
WOLF POINT     PTCLDY    73  42  32 CALM      29.85R
GLENDIVE       CLOUDY    77  50  38 NE7       29.86R
MILES CITY     CLOUDY    81  46  29 NE12      29.85R
BAKER          CLEAR     76  49  38 NE6       29.89R
$$

CITY           SKY/WX    TMP DP  RH WIND       PRES   REMARKS
BILLINGS       CLOUDY    81  47  30 E8        29.90R
GREAT FALLS    PTCLDY    75  45  34 E14       29.92R
$$





USA.gov is the U.S. government's official web portal to all federal, state and local government web resources and services.